EW9054 Weather Reports


time (UTC)temp
C
wind
direction
speed
KPH
gust
KPH
rain 1hr
cm
rain 24hr
cm
rain mn
cm
humidity
%
barometer
mb
20260508194540 21 169 0.0 9.7 0.00 0.00 0.00 53 1014.2
20260508193037 20 333 0.0 4.8 0.00 0.00 0.00 54 1014.3
20260508191542 21 103 0.0 12.9 0.00 0.00 0.00 51 1014.8
20260508190035 21 223 0.0 8.0 0.00 0.00 0.00 51 1015.0
20260508184534 20 325 0.0 12.9 0.00 0.00 0.00 51 1015.2
20260508183035 20 325 0.0 4.8 0.00 0.00 0.00 54 1015.3
20260508181532 20 195 0.0 9.7 0.00 0.00 0.00 53 1015.4
20260508180031 20 205 0.0 1.6 0.00 0.00 0.00 55 1015.5
20260508174529 20 184 0.0 11.3 0.00 0.00 0.00 58 1015.6
20260508173027 19 163 0.0 11.3 0.00 0.00 0.00 60 1016.0
20260508171529 19 273 0.0 4.8 0.00 0.00 0.00 56 1016.1
20260508170026 20 227 0.0 6.4 0.00 0.00 0.00 57 1016.3
20260508164523 18 109 4.8 9.7 0.00 0.03 0.00 58 1016.7
20260508163028 18 186 3.2 8.0 0.00 0.03 0.00 57 1016.8
20260508161518 17 133 3.2 4.8 0.00 0.03 0.00 57 1016.9
20260508160022 17 19 0.0 6.4 0.00 0.03 0.00 58 1017.1
20260508154518 18 12 0.0 6.4 0.00 0.03 0.00 58 1017.3
20260508153016 18 194 0.0 6.4 0.00 0.03 0.00 57 1017.5
20260508151513 17 229 0.0 9.7 0.00 0.03 0.00 57 1017.5
20260508150032 17 10 1.6 6.4 0.00 0.03 0.00 60 1017.3
20260508144508 16 5 3.2 11.3 0.00 0.05 0.00 61 1017.5
20260508143009 16 9 1.6 8.0 0.00 0.05 0.00 61 1017.5
20260508141504 16 304 0.0 8.0 0.00 0.05 0.00 67 1017.6
20260508140113 15 343 0.0 9.7 0.00 0.05 0.00 67 1017.7
20260508134556 15 319 1.6 4.8 0.00 0.05 0.00 76 1017.7
20260508133104 13 5 0.0 4.8 0.00 0.05 0.00 81 1017.5
20260508131548 12 339 0.0 0.0 0.00 0.05 0.00 97 1017.4
20260508130047 11 333 0.0 0.0 0.00 0.05 0.00 100 1017.4
20260508124545 11 325 0.0 0.0 0.00 0.05 0.00 100 1017.3
20260508123045 10 325 0.0 0.0 0.00 0.05 0.00 100 1017.0
20260508121542 8 325 0.0 0.0 0.00 0.05 0.00 100 1017.0
20260508120044 8 325 0.0 0.0 0.00 0.05 0.00 99 1016.8
20260508114540 8 325 0.0 0.0 0.00 0.05 0.00 99 1016.6
20260508113036 7 325 0.0 0.0 0.00 0.05 0.00 99 1016.3
20260508111534 7 325 0.0 0.0 0.00 0.05 0.00 98 1016.1
20260508110031 7 325 0.0 0.0 0.00 0.05 0.00 98 1015.7
20260508104529 7 325 0.0 0.0 0.00 0.05 0.00 98 1015.6
20260508103026 7 325 0.0 0.0 0.00 0.05 0.00 98 1015.4
20260508101524 7 325 0.0 0.0 0.00 0.05 0.00 98 1014.9
20260508100026 7 325 0.0 0.0 0.00 0.05 0.00 98 1014.8
20260508094521 7 325 0.0 0.0 0.00 0.05 0.00 98 1014.7
20260508093019 7 325 0.0 0.0 0.00 0.05 0.00 97 1014.8
20260508091518 7 325 0.0 0.0 0.00 0.05 0.00 97 1014.5
20260508090015 8 325 0.0 0.0 0.00 0.05 0.00 97 1014.4
20260508084513 8 325 0.0 0.0 0.00 0.05 0.00 97 1014.3
20260508083011 8 325 0.0 0.0 0.00 0.05 0.00 97 1014.3
20260508081512 8 325 0.0 0.0 0.00 0.05 0.00 97 1014.0
20260508080020 8 325 0.0 0.0 0.00 0.05 0.00 97 1014.0
20260508074505 8 325 0.0 0.0 0.00 0.05 0.00 97 1013.8
20260508073004 9 325 0.0 0.0 0.00 0.05 0.00 97 1013.7
20260508071502 9 325 0.0 0.0 0.00 0.05 0.00 97 1013.8
20260508070104 9 325 0.0 0.0 0.00 0.05 0.00 97 1013.5
20260508064601 9 325 0.0 0.0 0.00 0.05 0.00 96 1013.5
20260508063057 10 325 0.0 0.0 0.00 0.05 0.00 96 1013.4
20260508061556 10 325 0.0 0.0 0.00 0.05 0.00 96 1013.6
20260508060057 10 325 0.0 0.0 0.00 0.05 0.00 96 1013.5
20260508054554 10 325 0.0 0.0 0.00 0.05 0.00 96 1013.6
20260508053054 11 325 0.0 0.0 0.00 0.05 0.00 96 1013.5
20260508051550 11 325 0.0 0.0 0.00 0.05 0.00 96 1013.2
20260508050054 12 325 0.0 0.0 0.00 0.05 0.00 96 1013.3
20260508044542 12 325 0.0 0.0 0.00 0.05 0.00 96 1013.2
20260508043035 13 325 0.0 0.0 0.00 0.05 0.00 97 1013.0
20260508041533 13 325 0.0 0.0 0.00 0.05 0.00 97 1012.9
20260508040047 13 325 0.0 0.0 0.00 0.05 0.00 97 1012.8
20260508034539 13 325 0.0 0.0 0.00 0.05 0.05 96 1012.8
20260508033029 13 325 0.0 0.0 0.00 0.05 0.05 96 1012.7
20260508031531 14 325 0.0 0.0 0.00 0.05 0.05 96 1012.7
20260508030024 14 325 0.0 0.0 0.00 0.05 0.05 96 1012.6
20260508024525 15 325 0.0 0.0 0.00 0.05 0.05 96 1012.6
20260508023020 15 325 0.0 6.4 0.00 0.05 0.05 95 1012.4
20260508021519 15 130 0.0 0.0 0.00 0.05 0.05 95 1012.1
20260508020017 15 130 0.0 0.0 0.00 0.05 0.05 95 1012.0
20260508014516 15 130 0.0 0.0 0.00 0.05 0.05 95 1011.8
20260508013114 15 132 0.0 0.0 0.00 0.05 0.05 95 1011.2
20260508011514 16 21 0.0 0.0 0.00 0.05 0.05 95 1011.0
20260508010014 16 21 0.0 1.6 0.00 0.05 0.05 94 1010.7
20260508004511 16 145 0.0 6.4 0.00 0.05 0.05 94 1010.4
20260508003009 16 34 0.0 4.8 0.00 0.05 0.05 94 1010.1
20260508001513 16 173 1.6 4.8 0.00 0.05 0.05 93 1010.0
20260508000007 16 11 0.0 4.8 0.00 0.05 0.05 93 1009.2
20260507234508 17 286 0.0 8.0 0.00 0.10 0.05 92 1009.0
20260507233009 17 308 0.0 12.9 0.00 0.10 0.05 91 1008.8
20260507231504 18 355 1.6 22.5 0.00 0.10 0.05 89 1008.0
20260507230013 19 5 1.6 9.7 0.00 0.10 0.05 85 1007.7
20260507224502 22 276 1.6 20.9 0.00 0.10 0.05 78 1007.3
20260507223003 25 331 0.0 9.7 0.00 0.10 0.05 73 1006.4
20260507221500 25 292 0.0 9.7 0.00 0.10 0.05 70 1006.0
20260507220059 25 245 1.6 11.3 0.00 0.10 0.05 73 1006.1
20260507214600 24 170 0.0 8.0 0.00 0.10 0.05 75 1006.2
20260507213058 24 300 0.0 6.4 0.00 0.10 0.05 76 1006.0
20260507211602 24 261 1.6 11.3 0.00 0.10 0.05 74 1006.0
20260507210112 24 279 0.0 11.3 0.00 0.10 0.05 76 1005.9
20260507204554 25 90 0.0 9.7 0.00 0.10 0.05 74 1006.1
20260507203053 24 234 0.0 16.1 0.00 0.10 0.05 74 1006.2
20260507201555 24 161 0.0 9.7 0.00 0.10 0.05 75 1005.6
20260507200057 24 177 0.0 6.4 0.00 0.10 0.05 78 1006.2